Skagway, AK

4:12 PM AKDT on June 22, 2017 (GMT -0800)
Skagway

Weather History for PAGY - December, 2013

Change the Weather History Date:

Saturday, December 21, 2013

  Actual Average Record
Temperature  
Mean Temperature 20 °F -  
Max Temperature 25 °F 32 °F 50 °F (1999)
Min Temperature 15 °F 24 °F -1 °F (1971)
Degree Days  
Heating Degree Days 45    
Moisture  
Dew Point 7 °F    
Average Humidity 59    
Maximum Humidity 71    
Minimum Humidity 51    
Precipitation  
Precipitation 0.00 in - - ()
Sea Level Pressure  
Sea Level Pressure 29.97 in    
Wind  
Wind Speed 12 mph (NE)    
Max Wind Speed 24 mph    
Max Gust Speed 32 mph    
Visibility 10 miles    
Events Snow    
Averages and records for this station are not official NWS values.
T = Trace of Precipitation, MM = Missing Value Source: NWS Daily Summary

Daily Weather History Graph

Daily Weather History Graph

Search for Another Location

Airport or City:

Trip Planner

Search our weather history database for the weather conditions in past years. The results will help you decide how hot, cold, wet, or windy it might be!

Date:

Astronomy

Dec. 21, 2013 Rise Set
Actual Time 8:58 AM AKST 3:00 PM AKST
Civil Twilight 8:02 AM AKST 3:56 PM AKST
Nautical Twilight 7:06 AM AKST 4:52 PM AKST
Astronomical Twilight 6:16 AM AKST 5:43 PM AKST
Moon 8:29 PM AKST (12/21) 10:28 AM AKST (12/21)
Length of Visible Light 7h 54m
Length of Day
6h 02m
Waning Gibbous, 83% of the Moon is Illuminated
Dec 21
Waning Gibbous
Dec 25
Last Quarter
Jan 1
New
Jan 7
First Quarter
Jan 15
Full

Hourly Weather History & Observations

Time (AKST) Temp. Windchill Dew Point Humidity Pressure Visibility Wind Dir Wind Speed Gust Speed Precip Events Conditions
12:53 AM 15.1 °F -2.0 °F 1.0 °F 54% 29.97 in 10.0 mi NE 19.6 mph 27.6 mph N/A   Clear
1:53 AM 15.1 °F -3.7 °F -0.0 °F 51% 29.97 in 10.0 mi NE 24.2 mph 32.2 mph N/A   Clear
2:53 AM 15.1 °F -2.9 °F 1.0 °F 54% 29.99 in 10.0 mi NE 21.9 mph 32.2 mph N/A   Clear
3:53 AM 16.0 °F -1.3 °F 1.9 °F 54% 30.00 in 10.0 mi NE 20.7 mph 28.8 mph N/A   Scattered Clouds
4:53 AM 16.0 °F 1.1 °F 1.0 °F 52% 30.00 in 10.0 mi NNE 15.0 mph 20.7 mph N/A   Clear
5:53 AM 15.1 °F 0.5 °F 1.0 °F 54% 29.99 in 10.0 mi NE 13.8 mph 20.7 mph N/A   Overcast
6:53 AM 16.0 °F 1.1 °F 1.9 °F 54% 29.99 in 10.0 mi NE 15.0 mph 23.0 mph N/A   Overcast
7:53 AM 17.1 °F 3.6 °F 6.1 °F 62% 30.00 in 10.0 mi NE 12.7 mph 16.1 mph N/A   Overcast
8:53 AM 17.1 °F 3.0 °F 3.0 °F 54% 30.00 in 10.0 mi NE 13.8 mph - N/A   Overcast
9:53 AM 18.0 °F 5.4 °F 3.9 °F 54% 30.01 in 10.0 mi NE 11.5 mph - N/A   Overcast
10:53 AM 19.0 °F 8.2 °F 5.0 °F 54% 30.02 in 10.0 mi NE 9.2 mph - N/A   Overcast
11:53 AM 19.9 °F - 6.1 °F 55% 30.02 in 10.0 mi Calm Calm - N/A   Overcast
12:53 PM 21.9 °F - 8.1 °F 55% 30.01 in 10.0 mi Calm Calm - N/A   Overcast
1:53 PM 21.9 °F - 12.9 °F 68% 30.01 in 10.0 mi Calm Calm - N/A   Overcast
2:53 PM 21.9 °F - 10.9 °F 63% 29.99 in 10.0 mi Calm Calm - N/A   Overcast
3:53 PM 19.9 °F - 10.9 °F 68% 29.98 in 10.0 mi Calm Calm - N/A   Partly Cloudy
4:53 PM 19.9 °F - 12.0 °F 71% 29.98 in 10.0 mi Calm Calm - N/A   Overcast
5:53 PM 23.0 °F - 12.0 °F 63% 29.97 in 10.0 mi Calm Calm - N/A   Overcast
6:53 PM 23.0 °F 14.7 °F 10.9 °F 60% 29.96 in 10.0 mi NE 6.9 mph - N/A   Overcast
7:53 PM 24.1 °F - 10.9 °F 57% 29.95 in 10.0 mi Calm Calm - N/A   Overcast
8:53 PM 24.1 °F - 14.0 °F 65% 29.92 in 10.0 mi Calm Calm - N/A   Overcast
9:53 PM 25.0 °F - 15.1 °F 66% 29.90 in 9.0 mi Calm Calm - 0.00 in Snow Light Snow
10:53 PM 25.0 °F - 15.1 °F 66% 29.87 in 10.0 mi Calm Calm - 0.00 in   Overcast
11:53 PM 25.0 °F 20.7 °F 15.1 °F 66% 29.85 in 10.0 mi Variable 3.5 mph - N/A   Overcast